owner,sensor,date,latitude,longitude,vertical_datum,mass_concentration_of_oxygen_in_sea_water,qcFlag 
SCCF RECON,ioos:station:SCCF:13:1,2017-11-01T04:00:00Z,26.5255,-82.0032,2.57,7.1,1111122 
SCCF RECON,ioos:station:SCCF:13:1,2017-11-01T05:00:00Z,26.5255,-82.0032,2.541,6.91,1111122 
SCCF RECON,ioos:station:SCCF:13:1,2017-11-01T06:00:00Z,26.5255,-82.0032,2.43,6.91,1111122 
SCCF RECON,ioos:station:SCCF:13:1,2017-11-01T07:00:00Z,26.5255,-82.0032,2.3,7.32,1111122 
SCCF RECON,ioos:station:SCCF:13:1,2017-11-01T08:00:00Z,26.5255,-82.0032,2.213,8.05,1111122 
SCCF RECON,ioos:station:SCCF:13:1,2017-11-01T09:00:00Z,26.5255,-82.0032,2.156,8.03,1111122 
SCCF RECON,ioos:station:SCCF:13:1,2017-11-01T10:00:00Z,26.5255,-82.0032,2.12,8.11,1111122 
SCCF RECON,ioos:station:SCCF:13:1,2017-11-01T11:00:00Z,26.5255,-82.0032,2.16,8.07,1111122 
SCCF RECON,ioos:station:SCCF:13:1,2017-11-01T12:00:00Z,26.5255,-82.0032,2.29,7.97,1111122 
SCCF RECON,ioos:station:SCCF:13:1,2017-11-01T13:00:00Z,26.5255,-82.0032,2.43,8.07,1111122 
SCCF RECON,ioos:station:SCCF:13:1,2017-11-01T14:00:00Z,26.5255,-82.0032,2.51,7.08,1111122 
SCCF RECON,ioos:station:SCCF:13:1,2017-11-01T15:00:00Z,26.5255,-82.0032,2.581,7.08,1111122 
SCCF RECON,ioos:station:SCCF:13:1,2017-11-01T16:00:00Z,26.5255,-82.0032,2.633,7.03,1111122 
SCCF RECON,ioos:station:SCCF:13:1,2017-11-01T17:00:00Z,26.5255,-82.0032,2.629,7.13,1111122 
SCCF RECON,ioos:station:SCCF:13:1,2017-11-01T18:00:00Z,26.5255,-82.0032,2.548,6.97,1111122 
SCCF RECON,ioos:station:SCCF:13:1,2017-11-01T19:00:00Z,26.5255,-82.0032,2.43,6.9,1111122 
SCCF RECON,ioos:station:SCCF:13:1,2017-11-01T20:00:00Z,26.5255,-82.0032,2.331,7.28,1111122 
SCCF RECON,ioos:station:SCCF:13:1,2017-11-01T21:00:00Z,26.5255,-82.0032,2.29,7.9,1111122 
SCCF RECON,ioos:station:SCCF:13:1,2017-11-01T22:00:00Z,26.5255,-82.0032,2.26,7.93,1111122 
SCCF RECON,ioos:station:SCCF:13:1,2017-11-02T04:00:00Z,26.5255,-82.0032,2.77,7.09,1111122 
SCCF RECON,ioos:station:SCCF:13:1,2017-11-02T05:00:00Z,26.5255,-82.0032,2.77,7.15,1111122 
SCCF RECON,ioos:station:SCCF:13:1,2017-11-02T06:00:00Z,26.5255,-82.0032,2.67,7.14,1111122 
SCCF RECON,ioos:station:SCCF:13:1,2017-11-02T07:00:00Z,26.5255,-82.0032,2.53,7.08,1111122 
SCCF RECON,ioos:station:SCCF:13:1,2017-11-02T08:00:00Z,26.5255,-82.0032,2.41,7.36,1111122 
SCCF RECON,ioos:station:SCCF:13:1,2017-11-02T09:00:00Z,26.5255,-82.0032,2.33,7.67,1111122 
SCCF RECON,ioos:station:SCCF:13:1,2017-11-02T10:00:00Z,26.5255,-82.0032,2.25,7.69,1111122 
SCCF RECON,ioos:station:SCCF:13:1,2017-11-02T11:00:00Z,26.5255,-82.0032,2.201,7.66,1111122 
SCCF RECON,ioos:station:SCCF:13:1,2017-11-02T12:00:00Z,26.5255,-82.0032,2.26,7.6,1111122 
SCCF RECON,ioos:station:SCCF:13:1,2017-11-02T13:00:00Z,26.5255,-82.0032,2.448,7.59,1111122 
SCCF RECON,ioos:station:SCCF:13:1,2017-11-02T14:00:00Z,26.5255,-82.0032,2.57,7.44,1111122 
SCCF RECON,ioos:station:SCCF:13:1,2017-11-02T15:00:00Z,26.5255,-82.0032,2.643,6.97,1111122 
SCCF RECON,ioos:station:SCCF:13:1,2017-11-02T16:00:00Z,26.5255,-82.0032,2.72,6.92,1111122 
SCCF RECON,ioos:station:SCCF:13:1,2017-11-02T17:00:00Z,26.5255,-82.0032,2.739,6.99,1111122 
SCCF RECON,ioos:station:SCCF:13:1,2017-11-02T18:00:00Z,26.5255,-82.0032,2.69,6.99,1111122 
SCCF RECON,ioos:station:SCCF:13:1,2017-11-02T19:00:00Z,26.5255,-82.0032,2.56,7.19,1111122 
SCCF RECON,ioos:station:SCCF:13:1,2017-11-02T20:00:00Z,26.5255,-82.0032,2.425,7.0,1111122 
SCCF RECON,ioos:station:SCCF:13:1,2017-11-02T21:00:00Z,26.5255,-82.0032,2.349,7.54,1111122 
SCCF RECON,ioos:station:SCCF:13:1,2017-11-02T22:00:00Z,26.5255,-82.0032,2.3,7.58,1111122 
SCCF RECON,ioos:station:SCCF:13:1,2017-11-03T04:00:00Z,26.5255,-82.0032,2.65,6.9,1111122 
SCCF RECON,ioos:station:SCCF:13:1,2017-11-03T05:00:00Z,26.5255,-82.0032,2.67,7.2,1111122 
SCCF RECON,ioos:station:SCCF:13:1,2017-11-03T06:00:00Z,26.5255,-82.0032,2.625,7.23,1111122 
SCCF RECON,ioos:station:SCCF:13:1,2017-11-03T07:00:00Z,26.5255,-82.0032,2.491,7.12,1111122 
SCCF RECON,ioos:station:SCCF:13:1,2017-11-03T08:00:00Z,26.5255,-82.0032,2.351,7.3,1111122 
SCCF RECON,ioos:station:SCCF:13:1,2017-11-03T09:00:00Z,26.5255,-82.0032,2.251,7.37,1111122 
SCCF RECON,ioos:station:SCCF:13:1,2017-11-03T10:00:00Z,26.5255,-82.0032,2.163,7.34,1111122 
SCCF RECON,ioos:station:SCCF:13:1,2017-11-03T11:00:00Z,26.5255,-82.0032,2.088,7.35,1111122 
SCCF RECON,ioos:station:SCCF:13:1,2017-11-03T12:00:00Z,26.5255,-82.0032,2.05,7.23,1111122 
SCCF RECON,ioos:station:SCCF:13:1,2017-11-03T13:00:00Z,26.5255,-82.0032,2.142,7.06,1111122 
SCCF RECON,ioos:station:SCCF:13:1,2017-11-03T14:00:00Z,26.5255,-82.0032,2.344,7.0,1111122 
SCCF RECON,ioos:station:SCCF:13:1,2017-11-03T15:00:00Z,26.5255,-82.0032,2.45,7.32,1111122 
SCCF RECON,ioos:station:SCCF:13:1,2017-11-03T16:00:00Z,26.5255,-82.0032,2.52,7.15,1111122 
SCCF RECON,ioos:station:SCCF:13:1,2017-11-03T17:00:00Z,26.5255,-82.0032,2.598,6.97,1111122 
SCCF RECON,ioos:station:SCCF:13:1,2017-11-03T18:00:00Z,26.5255,-82.0032,2.619,7.3,1111122 
SCCF RECON,ioos:station:SCCF:13:1,2017-11-03T19:00:00Z,26.5255,-82.0032,2.574,7.34,1111122 
SCCF RECON,ioos:station:SCCF:13:1,2017-11-03T20:00:00Z,26.5255,-82.0032,2.47,7.26,1111122 
SCCF RECON,ioos:station:SCCF:13:1,2017-11-03T21:00:00Z,26.5255,-82.0032,2.37,7.12,1111122 
SCCF RECON,ioos:station:SCCF:13:1,2017-11-03T22:00:00Z,26.5255,-82.0032,2.305,7.38,1111122 
SCCF RECON,ioos:station:SCCF:13:1,2017-11-04T04:00:00Z,26.5255,-82.0032,2.65,6.96,1111122 
SCCF RECON,ioos:station:SCCF:13:1,2017-11-04T05:00:00Z,26.5255,-82.0032,2.69,6.93,1111122 
SCCF RECON,ioos:station:SCCF:13:1,2017-11-04T06:00:00Z,26.5255,-82.0032,2.68,6.99,1111122 
SCCF RECON,ioos:station:SCCF:13:1,2017-11-04T07:00:00Z,26.5255,-82.0032,2.59,6.95,1111122 
SCCF RECON,ioos:station:SCCF:13:1,2017-11-04T08:00:00Z,26.5255,-82.0032,2.44,6.85,1111122 
SCCF RECON,ioos:station:SCCF:13:1,2017-11-04T09:00:00Z,26.5255,-82.0032,2.301,7.22,1111122 
SCCF RECON,ioos:station:SCCF:13:1,2017-11-04T10:00:00Z,26.5255,-82.0032,2.21,7.34,1111122 
SCCF RECON,ioos:station:SCCF:13:1,2017-11-04T11:00:00Z,26.5255,-82.0032,2.12,7.35,1111122 
SCCF RECON,ioos:station:SCCF:13:1,2017-11-04T12:00:00Z,26.5255,-82.0032,2.049,7.36,1111122 
SCCF RECON,ioos:station:SCCF:13:1,2017-11-04T13:00:00Z,26.5255,-82.0032,2.021,7.28,1111122 
SCCF RECON,ioos:station:SCCF:13:1,2017-11-04T14:00:00Z,26.5255,-82.0032,2.152,7.24,1111122 
SCCF RECON,ioos:station:SCCF:13:1,2017-11-04T15:00:00Z,26.5255,-82.0032,2.34,7.23,1111122 
SCCF RECON,ioos:station:SCCF:13:1,2017-11-04T16:00:00Z,26.5255,-82.0032,2.44,7.49,1111122 
SCCF RECON,ioos:station:SCCF:13:1,2017-11-04T17:00:00Z,26.5255,-82.0032,2.504,7.02,1111122 
SCCF RECON,ioos:station:SCCF:13:1,2017-11-04T18:00:00Z,26.5255,-82.0032,2.579,6.91,1111122 
SCCF RECON,ioos:station:SCCF:13:1,2017-11-04T19:00:00Z,26.5255,-82.0032,2.591,6.98,1111122 
SCCF RECON,ioos:station:SCCF:13:1,2017-11-04T20:00:00Z,26.5255,-82.0032,2.54,7.07,1111122 
SCCF RECON,ioos:station:SCCF:13:1,2017-11-04T21:00:00Z,26.5255,-82.0032,2.443,6.91,1111122 
SCCF RECON,ioos:station:SCCF:13:1,2017-11-04T22:00:00Z,26.5255,-82.0032,2.37,6.84,1111122 
SCCF RECON,ioos:station:SCCF:13:1,2017-11-05T04:00:00Z,26.5255,-82.0032,2.67,6.75,1111122 
SCCF RECON,ioos:station:SCCF:13:1,2017-11-05T05:00:00Z,26.5255,-82.0032,2.73,6.65,1111122 
SCCF RECON,ioos:station:SCCF:13:1,2017-11-05T06:00:00Z,26.5255,-82.0032,2.76,6.6,1111122 
SCCF RECON,ioos:station:SCCF:13:1,2017-11-05T07:00:00Z,26.5255,-82.0032,2.73,6.59,1111122 
SCCF RECON,ioos:station:SCCF:13:1,2017-11-05T08:00:00Z,26.5255,-82.0032,2.619,6.45,1111122 
SCCF RECON,ioos:station:SCCF:13:1,2017-11-05T09:00:00Z,26.5255,-82.0032,2.452,6.55,1111122 
SCCF RECON,ioos:station:SCCF:13:1,2017-11-05T10:00:00Z,26.5255,-82.0032,2.338,7.26,1111122 
SCCF RECON,ioos:station:SCCF:13:1,2017-11-05T11:00:00Z,26.5255,-82.0032,2.241,7.34,1111122 
SCCF RECON,ioos:station:SCCF:13:1,2017-11-05T12:00:00Z,26.5255,-82.0032,2.147,7.42,1111122 
SCCF RECON,ioos:station:SCCF:13:1,2017-11-05T13:00:00Z,26.5255,-82.0032,2.08,7.3,1111122 
SCCF RECON,ioos:station:SCCF:13:1,2017-11-05T14:00:00Z,26.5255,-82.0032,2.07,7.33,1111122 
SCCF RECON,ioos:station:SCCF:13:1,2017-11-05T15:00:00Z,26.5255,-82.0032,2.229,7.35,1111122 
SCCF RECON,ioos:station:SCCF:13:1,2017-11-05T16:00:00Z,26.5255,-82.0032,2.397,7.38,1111122 
SCCF RECON,ioos:station:SCCF:13:1,2017-11-05T17:00:00Z,26.5255,-82.0032,2.483,7.39,1111122 
SCCF RECON,ioos:station:SCCF:13:1,2017-11-05T18:00:00Z,26.5255,-82.0032,2.569,6.85,1111122 
SCCF RECON,ioos:station:SCCF:13:1,2017-11-05T19:00:00Z,26.5255,-82.0032,2.632,6.66,1111122 
SCCF RECON,ioos:station:SCCF:13:1,2017-11-05T20:00:00Z,26.5255,-82.0032,2.64,6.73,1111122 
SCCF RECON,ioos:station:SCCF:13:1,2017-11-05T21:00:00Z,26.5255,-82.0032,2.564,6.88,1111122 
SCCF RECON,ioos:station:SCCF:13:1,2017-11-05T22:00:00Z,26.5255,-82.0032,2.492,6.66,1111122 
SCCF RECON,ioos:station:SCCF:13:1,2017-11-06T05:00:00Z,26.5255,-82.0032,2.76,6.47,1111122 
SCCF RECON,ioos:station:SCCF:13:1,2017-11-06T06:00:00Z,26.5255,-82.0032,2.8,6.47,1111122 
SCCF RECON,ioos:station:SCCF:13:1,2017-11-06T07:00:00Z,26.5255,-82.0032,2.81,6.34,1111122 
SCCF RECON,ioos:station:SCCF:13:1,2017-11-06T08:00:00Z,26.5255,-82.0032,2.748,6.18,1111122 
SCCF RECON,ioos:station:SCCF:13:1,2017-11-06T09:00:00Z,26.5255,-82.0032,2.61,6.18,1111122 
SCCF RECON,ioos:station:SCCF:13:1,2017-11-06T10:00:00Z,26.5255,-82.0032,2.451,6.53,1111122 
SCCF RECON,ioos:station:SCCF:13:1,2017-11-06T11:00:00Z,26.5255,-82.0032,2.351,7.06,1111122 
SCCF RECON,ioos:station:SCCF:13:1,2017-11-06T12:00:00Z,26.5255,-82.0032,2.249,7.32,1111122 
SCCF RECON,ioos:station:SCCF:13:1,2017-11-06T13:00:00Z,26.5255,-82.0032,2.16,7.1,1111122 
SCCF RECON,ioos:station:SCCF:13:1,2017-11-06T14:00:00Z,26.5255,-82.0032,2.091,7.12,1111122 
SCCF RECON,ioos:station:SCCF:13:1,2017-11-06T15:00:00Z,26.5255,-82.0032,2.1,7.14,1111122 
SCCF RECON,ioos:station:SCCF:13:1,2017-11-06T16:00:00Z,26.5255,-82.0032,2.26,7.2,1111122 
SCCF RECON,ioos:station:SCCF:13:1,2017-11-06T17:00:00Z,26.5255,-82.0032,2.394,7.23,1111122 
SCCF RECON,ioos:station:SCCF:13:1,2017-11-06T18:00:00Z,26.5255,-82.0032,2.443,7.27,1111122 
SCCF RECON,ioos:station:SCCF:13:1,2017-11-06T19:00:00Z,26.5255,-82.0032,2.508,6.64,1111122 
SCCF RECON,ioos:station:SCCF:13:1,2017-11-06T20:00:00Z,26.5255,-82.0032,2.551,6.43,1111122 
SCCF RECON,ioos:station:SCCF:13:1,2017-11-06T21:00:00Z,26.5255,-82.0032,2.558,6.43,1111122 
SCCF RECON,ioos:station:SCCF:13:1,2017-11-06T22:00:00Z,26.5255,-82.0032,2.499,6.59,1111122 
SCCF RECON,ioos:station:SCCF:13:1,2017-11-07T05:00:00Z,26.5255,-82.0032,2.641,6.28,1111122 
SCCF RECON,ioos:station:SCCF:13:1,2017-11-07T06:00:00Z,26.5255,-82.0032,2.71,6.31,1111122 
SCCF RECON,ioos:station:SCCF:13:1,2017-11-07T07:00:00Z,26.5255,-82.0032,2.72,6.23,1111122 
SCCF RECON,ioos:station:SCCF:13:1,2017-11-07T08:00:00Z,26.5255,-82.0032,2.71,6.14,1111122 
SCCF RECON,ioos:station:SCCF:13:1,2017-11-07T09:00:00Z,26.5255,-82.0032,2.64,5.97,1111122 
SCCF RECON,ioos:station:SCCF:13:1,2017-11-07T10:00:00Z,26.5255,-82.0032,2.505,6.01,1111122 
SCCF RECON,ioos:station:SCCF:13:1,2017-11-07T11:00:00Z,26.5255,-82.0032,2.367,6.79,1111122 
SCCF RECON,ioos:station:SCCF:13:1,2017-11-07T12:00:00Z,26.5255,-82.0032,2.278,7.07,1111122 
SCCF RECON,ioos:station:SCCF:13:1,2017-11-07T13:00:00Z,26.5255,-82.0032,2.181,7.14,1111122 
SCCF RECON,ioos:station:SCCF:13:1,2017-11-07T14:00:00Z,26.5255,-82.0032,2.099,7.01,1111122 
SCCF RECON,ioos:station:SCCF:13:1,2017-11-07T17:00:00Z,26.5255,-82.0032,2.24,7.02,1111122 
SCCF RECON,ioos:station:SCCF:13:1,2017-11-07T19:00:00Z,26.5255,-82.0032,2.411,7.26,1111122 
SCCF RECON,ioos:station:SCCF:13:1,2017-11-07T20:00:00Z,26.5255,-82.0032,2.488,6.58,1111122 
SCCF RECON,ioos:station:SCCF:13:1,2017-11-07T22:00:00Z,26.5255,-82.0032,2.56,6.54,1111122 
SCCF RECON,ioos:station:SCCF:13:1,2017-11-07T23:00:00Z,26.5255,-82.0032,2.508,6.58,1111122 
SCCF RECON,ioos:station:SCCF:13:1,2017-11-08T06:00:00Z,26.5255,-82.0032,2.66,6.3,1111122 
SCCF RECON,ioos:station:SCCF:13:1,2017-11-08T07:00:00Z,26.5255,-82.0032,2.71,6.04,1111122 
SCCF RECON,ioos:station:SCCF:13:1,2017-11-08T08:00:00Z,26.5255,-82.0032,2.73,6.06,1111122 
SCCF RECON,ioos:station:SCCF:13:1,2017-11-08T09:00:00Z,26.5255,-82.0032,2.71,6.13,1111122 
SCCF RECON,ioos:station:SCCF:13:1,2017-11-08T10:00:00Z,26.5255,-82.0032,2.63,5.84,1111122 
SCCF RECON,ioos:station:SCCF:13:1,2017-11-08T11:00:00Z,26.5255,-82.0032,2.49,5.92,1111122 
SCCF RECON,ioos:station:SCCF:13:1,2017-11-08T12:00:00Z,26.5255,-82.0032,2.373,6.83,1111122 
SCCF RECON,ioos:station:SCCF:13:1,2017-11-08T13:00:00Z,26.5255,-82.0032,2.286,7.08,1111122 
SCCF RECON,ioos:station:SCCF:13:1,2017-11-08T14:00:00Z,26.5255,-82.0032,2.191,7.04,1111122 
SCCF RECON,ioos:station:SCCF:13:1,2017-11-08T15:00:00Z,26.5255,-82.0032,2.119,6.87,1111122 
SCCF RECON,ioos:station:SCCF:13:1,2017-11-08T16:00:00Z,26.5255,-82.0032,2.07,6.82,1111122 
SCCF RECON,ioos:station:SCCF:13:1,2017-11-08T17:00:00Z,26.5255,-82.0032,2.1,6.81,1111122 
SCCF RECON,ioos:station:SCCF:13:1,2017-11-08T18:00:00Z,26.5255,-82.0032,2.229,6.86,1111122 
SCCF RECON,ioos:station:SCCF:13:1,2017-11-08T19:00:00Z,26.5255,-82.0032,2.32,6.91,1111122 
SCCF RECON,ioos:station:SCCF:13:1,2017-11-08T20:00:00Z,26.5255,-82.0032,2.383,7.04,1111122 
SCCF RECON,ioos:station:SCCF:13:1,2017-11-08T21:00:00Z,26.5255,-82.0032,2.459,6.38,1111122 
SCCF RECON,ioos:station:SCCF:13:1,2017-11-08T22:00:00Z,26.5255,-82.0032,2.52,6.45,1111122 
SCCF RECON,ioos:station:SCCF:13:1,2017-11-09T05:00:00Z,26.5255,-82.0032,2.53,5.86,1111122 
SCCF RECON,ioos:station:SCCF:13:1,2017-11-09T06:00:00Z,26.5255,-82.0032,2.59,5.88,1111122 
SCCF RECON,ioos:station:SCCF:13:1,2017-11-09T07:00:00Z,26.5255,-82.0032,2.63,6.04,1111122 
SCCF RECON,ioos:station:SCCF:13:1,2017-11-09T08:00:00Z,26.5255,-82.0032,2.68,5.85,1111122 
SCCF RECON,ioos:station:SCCF:13:1,2017-11-09T09:00:00Z,26.5255,-82.0032,2.69,5.78,1111122 
SCCF RECON,ioos:station:SCCF:13:1,2017-11-09T10:00:00Z,26.5255,-82.0032,2.66,5.57,1111122 
SCCF RECON,ioos:station:SCCF:13:1,2017-11-09T11:00:00Z,26.5255,-82.0032,2.595,5.68,1111122 
SCCF RECON,ioos:station:SCCF:13:1,2017-11-09T12:00:00Z,26.5255,-82.0032,2.48,5.8,1111122 
SCCF RECON,ioos:station:SCCF:13:1,2017-11-09T13:00:00Z,26.5255,-82.0032,2.38,6.59,1111122 
SCCF RECON,ioos:station:SCCF:13:1,2017-11-09T14:00:00Z,26.5255,-82.0032,2.3,6.75,1111122 
SCCF RECON,ioos:station:SCCF:13:1,2017-11-09T15:00:00Z,26.5255,-82.0032,2.206,6.84,1111122 
SCCF RECON,ioos:station:SCCF:13:1,2017-11-09T16:00:00Z,26.5255,-82.0032,2.124,6.72,1111122 
SCCF RECON,ioos:station:SCCF:13:1,2017-11-09T17:00:00Z,26.5255,-82.0032,2.085,6.6,1111122 
SCCF RECON,ioos:station:SCCF:13:1,2017-11-09T18:00:00Z,26.5255,-82.0032,2.12,6.54,1111122 
SCCF RECON,ioos:station:SCCF:13:1,2017-11-09T19:00:00Z,26.5255,-82.0032,2.25,6.58,1111122 
SCCF RECON,ioos:station:SCCF:13:1,2017-11-09T20:00:00Z,26.5255,-82.0032,2.342,6.63,1111122 
SCCF RECON,ioos:station:SCCF:13:1,2017-11-09T21:00:00Z,26.5255,-82.0032,2.396,6.81,1111122 
SCCF RECON,ioos:station:SCCF:13:1,2017-11-09T22:00:00Z,26.5255,-82.0032,2.45,6.44,1111122 
SCCF RECON,ioos:station:SCCF:13:1,2017-11-10T05:00:00Z,26.5255,-82.0032,2.43,6.16,1111122 
SCCF RECON,ioos:station:SCCF:13:1,2017-11-10T06:00:00Z,26.5255,-82.0032,2.44,6.2,1111122 
SCCF RECON,ioos:station:SCCF:13:1,2017-11-10T07:00:00Z,26.5255,-82.0032,2.478,5.45,1111122 
SCCF RECON,ioos:station:SCCF:13:1,2017-11-10T08:00:00Z,26.5255,-82.0032,2.53,5.72,1111122 
SCCF RECON,ioos:station:SCCF:13:1,2017-11-10T09:00:00Z,26.5255,-82.0032,2.567,6.02,1111122 
SCCF RECON,ioos:station:SCCF:13:1,2017-11-10T10:00:00Z,26.5255,-82.0032,2.58,5.53,1111122 
SCCF RECON,ioos:station:SCCF:13:1,2017-11-10T11:00:00Z,26.5255,-82.0032,2.59,5.25,1111122 
SCCF RECON,ioos:station:SCCF:13:1,2017-11-10T12:00:00Z,26.5255,-82.0032,2.55,5.25,1111122 
SCCF RECON,ioos:station:SCCF:13:1,2017-11-10T13:00:00Z,26.5255,-82.0032,2.45,5.54,1111122 
SCCF RECON,ioos:station:SCCF:13:1,2017-11-10T14:00:00Z,26.5255,-82.0032,2.341,6.45,1111122 
SCCF RECON,ioos:station:SCCF:13:1,2017-11-10T15:00:00Z,26.5255,-82.0032,2.269,6.79,1111122 
SCCF RECON,ioos:station:SCCF:13:1,2017-11-10T16:00:00Z,26.5255,-82.0032,2.184,6.93,1111122 
SCCF RECON,ioos:station:SCCF:13:1,2017-11-10T17:00:00Z,26.5255,-82.0032,2.116,7.03,1111122 
SCCF RECON,ioos:station:SCCF:13:1,2017-11-10T18:00:00Z,26.5255,-82.0032,2.077,6.89,1111122 
SCCF RECON,ioos:station:SCCF:13:1,2017-11-10T19:00:00Z,26.5255,-82.0032,2.106,6.84,1111122 
SCCF RECON,ioos:station:SCCF:13:1,2017-11-10T20:00:00Z,26.5255,-82.0032,2.21,6.83,1111122 
SCCF RECON,ioos:station:SCCF:13:1,2017-11-10T21:00:00Z,26.5255,-82.0032,2.287,6.87,1111122 
SCCF RECON,ioos:station:SCCF:13:1,2017-11-10T22:00:00Z,26.5255,-82.0032,2.36,6.49,1111122 
SCCF RECON,ioos:station:SCCF:13:1,2017-11-11T05:00:00Z,26.5255,-82.0032,2.301,6.49,1111122 
SCCF RECON,ioos:station:SCCF:13:1,2017-11-11T06:00:00Z,26.5255,-82.0032,2.25,7.4,1111122 
SCCF RECON,ioos:station:SCCF:13:1,2017-11-11T07:00:00Z,26.5255,-82.0032,2.23,7.39,1111122 
SCCF RECON,ioos:station:SCCF:13:1,2017-11-11T08:00:00Z,26.5255,-82.0032,2.27,7.47,1111122 
SCCF RECON,ioos:station:SCCF:13:1,2017-11-11T09:00:00Z,26.5255,-82.0032,2.35,6.53,1111122 
SCCF RECON,ioos:station:SCCF:13:1,2017-11-11T10:00:00Z,26.5255,-82.0032,2.41,6.1,1111122 
SCCF RECON,ioos:station:SCCF:13:1,2017-11-11T11:00:00Z,26.5255,-82.0032,2.47,6.19,1111122 
SCCF RECON,ioos:station:SCCF:13:1,2017-11-11T12:00:00Z,26.5255,-82.0032,2.516,6.09,1111122 
SCCF RECON,ioos:station:SCCF:13:1,2017-11-11T13:00:00Z,26.5255,-82.0032,2.53,6.25,1111122 
SCCF RECON,ioos:station:SCCF:13:1,2017-11-11T14:00:00Z,26.5255,-82.0032,2.48,5.79,1111122 
SCCF RECON,ioos:station:SCCF:13:1,2017-11-11T15:00:00Z,26.5255,-82.0032,2.383,6.17,1111122 
SCCF RECON,ioos:station:SCCF:13:1,2017-11-11T16:00:00Z,26.5255,-82.0032,2.284,7.18,1111122 
SCCF RECON,ioos:station:SCCF:13:1,2017-11-11T17:00:00Z,26.5255,-82.0032,2.202,7.61,1111122 
SCCF RECON,ioos:station:SCCF:13:1,2017-11-11T18:00:00Z,26.5255,-82.0032,2.139,7.63,1111122 
SCCF RECON,ioos:station:SCCF:13:1,2017-11-11T19:00:00Z,26.5255,-82.0032,2.1,7.73,1111122 
SCCF RECON,ioos:station:SCCF:13:1,2017-11-11T20:00:00Z,26.5255,-82.0032,2.135,7.74,1111122 
SCCF RECON,ioos:station:SCCF:13:1,2017-11-11T21:00:00Z,26.5255,-82.0032,2.239,7.78,1111122 
SCCF RECON,ioos:station:SCCF:13:1,2017-11-11T22:00:00Z,26.5255,-82.0032,2.34,7.17,1111122 
SCCF RECON,ioos:station:SCCF:13:1,2017-11-12T05:00:00Z,26.5255,-82.0032,2.42,7.0,1111122 
SCCF RECON,ioos:station:SCCF:13:1,2017-11-12T06:00:00Z,26.5255,-82.0032,2.37,6.91,1111122 
SCCF RECON,ioos:station:SCCF:13:1,2017-11-12T07:00:00Z,26.5255,-82.0032,2.31,7.12,1111122 
SCCF RECON,ioos:station:SCCF:13:1,2017-11-12T08:00:00Z,26.5255,-82.0032,2.291,7.63,1111122 
SCCF RECON,ioos:station:SCCF:13:1,2017-11-12T09:00:00Z,26.5255,-82.0032,2.33,7.49,1111122 
SCCF RECON,ioos:station:SCCF:13:1,2017-11-12T10:00:00Z,26.5255,-82.0032,2.38,6.8,1111122 
SCCF RECON,ioos:station:SCCF:13:1,2017-11-12T11:00:00Z,26.5255,-82.0032,2.43,6.62,1111122 
SCCF RECON,ioos:station:SCCF:13:1,2017-11-12T12:00:00Z,26.5255,-82.0032,2.51,6.77,1111122 
SCCF RECON,ioos:station:SCCF:13:1,2017-11-12T13:00:00Z,26.5255,-82.0032,2.53,6.69,1111122 
SCCF RECON,ioos:station:SCCF:13:1,2017-11-12T14:00:00Z,26.5255,-82.0032,2.54,6.57,1111122 
SCCF RECON,ioos:station:SCCF:13:1,2017-11-12T15:00:00Z,26.5255,-82.0032,2.53,6.48,1111122 
SCCF RECON,ioos:station:SCCF:13:1,2017-11-12T16:00:00Z,26.5255,-82.0032,2.47,6.4,1111122 
SCCF RECON,ioos:station:SCCF:13:1,2017-11-12T17:00:00Z,26.5255,-82.0032,2.357,6.64,1111122 
SCCF RECON,ioos:station:SCCF:13:1,2017-11-12T18:00:00Z,26.5255,-82.0032,2.264,7.61,1111122 
SCCF RECON,ioos:station:SCCF:13:1,2017-11-12T19:00:00Z,26.5255,-82.0032,2.2,8.01,1111122 
SCCF RECON,ioos:station:SCCF:13:1,2017-11-12T20:00:00Z,26.5255,-82.0032,2.179,8.04,1111122 
SCCF RECON,ioos:station:SCCF:13:1,2017-11-12T21:00:00Z,26.5255,-82.0032,2.225,8.2,1111122 
SCCF RECON,ioos:station:SCCF:13:1,2017-11-12T22:00:00Z,26.5255,-82.0032,2.37,8.13,1111122 
SCCF RECON,ioos:station:SCCF:13:1,2017-11-13T05:00:00Z,26.5255,-82.0032,2.51,7.3,1111122 
SCCF RECON,ioos:station:SCCF:13:1,2017-11-13T06:00:00Z,26.5255,-82.0032,2.421,7.2,1111122 
SCCF RECON,ioos:station:SCCF:13:1,2017-11-13T07:00:00Z,26.5255,-82.0032,2.3,7.3,1111122 
SCCF RECON,ioos:station:SCCF:13:1,2017-11-13T08:00:00Z,26.5255,-82.0032,2.231,8.04,1111122 
SCCF RECON,ioos:station:SCCF:13:1,2017-11-13T09:00:00Z,26.5255,-82.0032,2.22,8.1,1111122 
SCCF RECON,ioos:station:SCCF:13:1,2017-11-13T10:00:00Z,26.5255,-82.0032,2.26,8.16,1111122 
SCCF RECON,ioos:station:SCCF:13:1,2017-11-13T11:00:00Z,26.5255,-82.0032,2.36,7.96,1111122 
SCCF RECON,ioos:station:SCCF:13:1,2017-11-13T12:00:00Z,26.5255,-82.0032,2.44,7.24,1111122 
SCCF RECON,ioos:station:SCCF:13:1,2017-11-13T13:00:00Z,26.5255,-82.0032,2.493,7.14,1111122 
SCCF RECON,ioos:station:SCCF:13:1,2017-11-13T14:00:00Z,26.5255,-82.0032,2.556,7.22,1111122 
SCCF RECON,ioos:station:SCCF:13:1,2017-11-13T15:00:00Z,26.5255,-82.0032,2.571,7.18,1111122 
SCCF RECON,ioos:station:SCCF:13:1,2017-11-13T16:00:00Z,26.5255,-82.0032,2.55,7.07,1111122 
SCCF RECON,ioos:station:SCCF:13:1,2017-11-13T17:00:00Z,26.5255,-82.0032,2.47,6.99,1111122 
SCCF RECON,ioos:station:SCCF:13:1,2017-11-13T18:00:00Z,26.5255,-82.0032,2.344,7.17,1111122 
SCCF RECON,ioos:station:SCCF:13:1,2017-11-13T19:00:00Z,26.5255,-82.0032,2.25,8.08,1111122 
SCCF RECON,ioos:station:SCCF:13:1,2017-11-13T20:00:00Z,26.5255,-82.0032,2.2,8.15,1111122 
SCCF RECON,ioos:station:SCCF:13:1,2017-11-13T21:00:00Z,26.5255,-82.0032,2.179,8.21,1111122 
SCCF RECON,ioos:station:SCCF:13:1,2017-11-13T23:00:00Z,26.5255,-82.0032,2.34,8.14,1111122 
SCCF RECON,ioos:station:SCCF:13:1,2017-11-14T05:00:00Z,26.5255,-82.0032,2.52,7.52,1111122 
SCCF RECON,ioos:station:SCCF:13:1,2017-11-14T06:00:00Z,26.5255,-82.0032,2.39,7.45,1111122 
SCCF RECON,ioos:station:SCCF:13:1,2017-11-14T07:00:00Z,26.5255,-82.0032,2.26,7.52,1111122 
SCCF RECON,ioos:station:SCCF:13:1,2017-11-14T08:00:00Z,26.5255,-82.0032,2.179,8.17,1111122 
SCCF RECON,ioos:station:SCCF:13:1,2017-11-14T09:00:00Z,26.5255,-82.0032,2.119,8.21,1111122 
SCCF RECON,ioos:station:SCCF:13:1,2017-11-14T10:00:00Z,26.5255,-82.0032,2.106,8.23,1111122 
SCCF RECON,ioos:station:SCCF:13:1,2017-11-14T11:00:00Z,26.5255,-82.0032,2.163,8.31,1111122 
SCCF RECON,ioos:station:SCCF:13:1,2017-11-14T12:00:00Z,26.5255,-82.0032,2.29,8.32,1111122 
SCCF RECON,ioos:station:SCCF:13:1,2017-11-14T13:00:00Z,26.5255,-82.0032,2.367,7.43,1111122 
SCCF RECON,ioos:station:SCCF:13:1,2017-11-14T14:00:00Z,26.5255,-82.0032,2.43,7.32,1111122 
SCCF RECON,ioos:station:SCCF:13:1,2017-11-14T15:00:00Z,26.5255,-82.0032,2.48,7.44,1111122 
SCCF RECON,ioos:station:SCCF:13:1,2017-11-14T16:00:00Z,26.5255,-82.0032,2.513,7.49,1111122 
SCCF RECON,ioos:station:SCCF:13:1,2017-11-14T17:00:00Z,26.5255,-82.0032,2.488,7.43,1111122 
SCCF RECON,ioos:station:SCCF:13:1,2017-11-14T18:00:00Z,26.5255,-82.0032,2.42,7.19,1111122 
SCCF RECON,ioos:station:SCCF:13:1,2017-11-14T19:00:00Z,26.5255,-82.0032,2.33,7.18,1111122 
SCCF RECON,ioos:station:SCCF:13:1,2017-11-14T20:00:00Z,26.5255,-82.0032,2.251,7.38,1111122 
SCCF RECON,ioos:station:SCCF:13:1,2017-11-14T21:00:00Z,26.5255,-82.0032,2.2,8.19,1111122 
SCCF RECON,ioos:station:SCCF:13:1,2017-11-14T22:00:00Z,26.5255,-82.0032,2.222,8.25,1111122 
SCCF RECON,ioos:station:SCCF:13:1,2017-11-15T05:00:00Z,26.5255,-82.0032,2.483,7.32,1111122 
SCCF RECON,ioos:station:SCCF:13:1,2017-11-15T06:00:00Z,26.5255,-82.0032,2.4,7.33,1111122 
SCCF RECON,ioos:station:SCCF:13:1,2017-11-15T07:00:00Z,26.5255,-82.0032,2.28,7.37,1111122 
SCCF RECON,ioos:station:SCCF:13:1,2017-11-15T08:00:00Z,26.5255,-82.0032,2.173,8.17,1111122 
SCCF RECON,ioos:station:SCCF:13:1,2017-11-15T09:00:00Z,26.5255,-82.0032,2.098,8.3,1111122 
SCCF RECON,ioos:station:SCCF:13:1,2017-11-15T10:00:00Z,26.5255,-82.0032,2.04,8.41,1111122 
SCCF RECON,ioos:station:SCCF:13:1,2017-11-15T11:00:00Z,26.5255,-82.0032,2.024,8.42,1111122 
SCCF RECON,ioos:station:SCCF:13:1,2017-11-15T12:00:00Z,26.5255,-82.0032,2.12,8.42,1111122 